This demonstration page uses our WeatherBlox Daily Observations layout. Learn more.

Left ArrowRight Arrow

Hourly Observations for June 29, 2022

Temp ( °F °C ) Dew Point ( °F °C ) Humidity (%) Winds ( mph kmh ) Pressure ( in mb ) Visibility ( mi km ) Precip ( " mm )
12:59 am 00:59 Mostly Cloudy 64 17.8 60 15.6 87 87 SSE 3 6 30.25 1024 10 16 0.00 0.00
1:59 am 01:59 Mostly Cloudy 64 17.8 60 15.6 87 87 SSE 5 7 30.26 1025 10 16 0.00 0.00
2:59 am 02:59 Mostly Cloudy 64 17.8 61 16.1 90 90 S 5 7 30.25 1024 10 16 0.00 0.00
3:59 am 03:59 Mostly Cloudy 64 17.8 62 16.7 93 93 Calm 30.24 1024 10 16 0.00 0.00
4:59 am 04:59 Mostly Cloudy 64 17.8 61 16.1 90 90 Calm 30.26 1025 10 16 0.00 0.00
5:59 am 05:59 Mostly Cloudy 64 17.8 60 15.6 87 87 SSW 3 6 30.26 1025 10 16 0.00 0.00
6:59 am 06:59 Sunny N/A N/A N/A Calm 30.27 1025 10 16 0.00 0.00
7:59 am 07:59 Mostly Cloudy 72 22.2 67 19.4 84 84 Calm 30.27 1025 10 16 0.00 0.00
8:59 am 08:59 Mostly Cloudy 73 22.8 67 19.4 81 81 S 5 7 30.29 1026 10 16 0.00 0.00
9:59 am 09:59 Mostly Cloudy 75 23.9 55 12.8 50 50 SE 3 6 30.29 1026 10 16 0.00 0.00
10:59 am 10:59 Partly Cloudy 77 25 53 11.7 43 43 Calm 30.30 1026 10 16 0.00 0.00
11:59 am 11:59 Partly Cloudy 81 27.2 55 12.8 41 41 VRB 3 6 30.30 1026 10 16 0.00 0.00
12:59 pm 12:59 Mostly Cloudy 81 27.2 57 13.9 44 44 WSW 6 9 30.29 1026 10 16 0.00 0.00
1:59 pm 13:59 Mostly Cloudy 83 28.3 56 13.3 40 40 VRB 3 6 30.27 1025 10 16 0.00 0.00
2:59 pm 14:59 Mostly Cloudy 84 28.9 57 13.9 40 40 ENE 9 15 30.26 1025 10 16 0.00 0.00
3:59 pm 15:59 Mostly Cloudy 84 28.9 57 13.9 40 40 ENE 8 13 30.24 1024 10 16 0.00 0.00
4:59 pm 16:59 Mostly Cloudy 82 27.8 59 15 46 46 E 9 15 30.23 1024 10 16 0.00 0.00
5:59 pm 17:59 Mostly Cloudy 81 27.2 62 16.7 53 53 S 7 11 30.23 1024 10 16 0.00 0.00
6:59 pm 18:59 Partly Cloudy 78 25.6 60 15.6 54 54 S 8 13 30.23 1024 10 16 0.00 0.00
7:59 pm 19:59 Partly Cloudy 78 25.6 60 15.6 54 54 S 9 15 30.22 1024 10 16 0.00 0.00
8:59 pm 20:59 Partly Cloudy 74 23.3 61 16.1 64 64 SSE 8 13 30.23 1024 10 16 0.00 0.00
9:59 pm 21:59 Mostly Clear 73 22.8 62 16.7 69 69 SSE 6 9 30.24 1024 10 16 0.00 0.00
10:59 pm 22:59 Clear 73 22.8 62 16.7 69 69 SSE 5 7 30.25 1024 10 16 0.00 0.00
11:59 pm 23:59 Clear 70 21.1 63 17.2 79 79 S 3 6 30.26 1025 10 16 0.00 0.00

Powered by AerisWeather